Home > Weather > Exeter > Past weeks

Flag for United Kingdom Past Weather in Exeter, England, United Kingdom — Yesterday and Last 2 Weeks

Now
70 °F

Passing clouds.


Feels Like: 70 °F
Forecast: 57 / 70 °F
Wind: 8 mph from West

Location: Exeter Airport

Current Time: Jul 23, 2016 at 8:27:05 PM

Latest Report: Jul 23, 2016 at 7:50 PM


Visibility: N/A

Pressure: 30.12 "Hg

Humidity: 64%

Dew Point: 57 °F

Location of ExeterLocation

Past Weather in Exeter — Graph

°F

Exeter Temperature Yesterday

Maximum temperature yesterday: 73 °F (at 1:20 PM)
Minimum temperature yesterday: 54 °F (at 5:50 AM)
Average temperature yesterday: 65 °F

High & Low Weather Summary for the Past Weeks

 TemperatureHumidityPressure
High79 °F (Jul 17, 3:50 PM)100% (Jul 13, 5:50 AM)30.36 "Hg (Jul 13, 5:50 AM)
Low45 °F (Jul 13, 5:20 AM)43% (Jul 13, 3:50 PM)29.71 "Hg (Jul 11, 2:20 AM)
Average65 °F76%30.07 "Hg
* Reported Jul 8 7:20 PM — Jul 23 7:20 PM, Exeter, Weather by CustomWeather, © 2016

Note: Actual official high and low records may vary slightly from our data, if they occured in-between our weather recording intervals... More about our weather records

Advertising

Exeter Weather History for the Previous 24 Hours

Scroll right to see more
 ConditionsComfort  
Time TempWeatherWind HumidityBarometerVisibility
7:20 PM
Sat, Jul 23
70 °FScattered clouds.12 mph64%30.12 "HgN/A
6:50 PM73 °FScattered clouds.10 mph57%30.12 "HgN/A
6:20 PM73 °FScattered clouds.7 mph53%30.12 "HgN/A
5:50 PM73 °FScattered clouds.1 mph53%30.12 "HgN/A
5:20 PM73 °FScattered clouds.2 mph53%30.12 "HgN/A
4:50 PM73 °FScattered clouds.6 mph53%30.12 "HgN/A
4:20 PM73 °FScattered clouds.6 mph53%30.12 "HgN/A
3:50 PM73 °FScattered clouds.7 mph53%30.12 "HgN/A
3:20 PM72 °FScattered clouds.2 mph57%30.15 "HgN/A
2:50 PM72 °FPartly sunny.3 mph57%30.15 "HgN/A
2:20 PM72 °FPartly sunny.5 mph61%30.15 "HgN/A
1:50 PM70 °FScattered clouds.6 mph64%30.15 "HgN/A
1:20 PM70 °FScattered clouds.6 mph64%30.15 "HgN/A
12:50 PM70 °FScattered clouds.7 mph60%30.15 "HgN/A
12:20 PM70 °FScattered clouds.6 mph64%30.15 "HgN/A
11:50 AM70 °FScattered clouds.6 mph64%30.15 "HgN/A
11:20 AM68 °FScattered clouds.3 mph69%30.15 "HgN/A
10:50 AM68 °FScattered clouds.7 mph69%30.15 "HgN/A
10:20 AM66 °FBroken clouds.8 mph78%30.15 "HgN/A
9:50 AM64 °FPartly sunny.7 mph78%30.15 "HgN/A
9:20 AM64 °FScattered clouds.7 mph83%30.15 "HgN/A
8:50 AM63 °FScattered clouds.6 mph88%30.15 "HgN/A
8:20 AM63 °FScattered clouds.5 mph88%30.15 "HgN/A
7:50 AM61 °FScattered clouds.5 mph94%30.15 "HgN/A
7:20 AM61 °FScattered clouds.3 mph94%30.15 "HgN/A
6:50 AM59 °FScattered clouds.No wind94%30.12 "HgN/A
6:20 AM59 °FPassing clouds.1 mph94%30.12 "HgN/A
5:50 AM59 °FPassing clouds.1 mph94%30.12 "HgN/A
2:50 AM61 °FPassing clouds.8 mph94%30.15 "Hg5 mi
1:50 AM61 °FPassing clouds.7 mph94%30.15 "Hg5 mi
1:20 AM61 °FPassing clouds.6 mph94%30.12 "Hg5 mi
12:50 AM61 °FPassing clouds.3 mph94%30.12 "HgN/A
12:20 AM61 °FPassing clouds.1 mph94%30.12 "HgN/A
11:50 PM
Fri, Jul 22
61 °FPassing clouds.1 mph94%30.12 "HgN/A
11:20 PM63 °FPassing clouds.5 mph88%30.12 "HgN/A
10:50 PM64 °FPassing clouds.6 mph83%30.12 "HgN/A
10:20 PM64 °FPassing clouds.2 mph88%30.12 "HgN/A
9:50 PM66 °FScattered clouds.2 mph88%30.12 "HgN/A
8:50 PM68 °FScattered showers. Scattered clouds.5 mph83%30.09 "HgN/A
8:20 PM68 °FScattered clouds.3 mph78%30.09 "HgN/A
Weather by CustomWeather, © 2016

See weather overviewHow to use our weather pages